This demonstration page uses our WeatherBlox Daily Observations layout. Learn more.

Left ArrowRight Arrow

Hourly Observations for April 29, 2015

Temp ( °F °C ) Dew Point ( °F °C ) Humidity (%) Winds ( mph kmh ) Pressure ( in mb ) Visibility ( mi km ) Precip ( " mm )
12:53 am 00:53 Clear 47 8.3 32 undefined 56 56 ENE 6 9 29.85 1011 10 16 N/A
1:53 am 01:53 Clear 44 6.7 33 0.6 65 65 ENE 6 9 29.84 1011 10 16 N/A
2:53 am 02:53 Clear 43 6.1 34 1.1 71 71 ENE 5 7 29.82 1010 10 16 N/A
3:53 am 03:53 Clear 34 1.1 31 -0.6 89 89 W 3 6 29.83 1010 10 16 N/A
4:53 am 04:53 Clear 32 undefined 29 -1.7 88 88 WSW 8 13 29.84 1011 10 16 N/A
5:53 am 05:53 Clear 35 1.7 31 -0.6 85 85 SW 7 11 29.83 1010 10 16 N/A
6:53 am 06:53 Sunny 35 1.7 31 -0.6 85 85 N N/A 29.83 1010 10 16 N/A
7:53 am 07:53 Sunny 43 6.1 35 1.7 74 74 N N/A 29.83 1010 10 16 N/A
8:53 am 08:53 Sunny 51 10.6 37 2.8 59 59 VRB 3 6 29.83 1010 10 16 N/A
9:53 am 09:53 Sunny 60 15.6 39 3.9 46 46 WSW 6 9 29.81 1009 10 16 N/A
10:53 am 10:53 Sunny 71 21.7 40 4.4 32 32 SW 15 24 29.78 1009 10 16 N/A
11:53 am 11:53 Sunny 77 25 36 2.2 23 23 W 14 22 29.77 1008 10 16 N/A
12:53 pm 12:53 Sunny 78 25.6 38 3.3 24 24 SSW 6 9 29.76 1008 10 16 N/A
1:53 pm 13:53 Sunny 80 26.7 38 3.3 22 22 W 9 15 29.75 1007 10 16 N/A
2:53 pm 14:53 Partly Cloudy 80 26.7 37 2.8 21 21 NNW 21 33 29.73 1007 10 16 N/A
3:10 pm 15:10 Mostly Cloudy 79 26 37 3 23 23 NW 18 30 29.59 1002 10 16 N/A
3:53 pm 15:53 Sunny 80 26.7 38 3.3 22 22 WNW 15 24 29.76 1008 10 16 N/A
4:53 pm 16:53 Sunny 78 25.6 38 3.3 24 24 WNW 15 24 29.77 1008 10 16 N/A
5:53 pm 17:53 Mostly Cloudy 73 22.8 38 3.3 28 28 NNW 9 15 29.78 1008 10 16 N/A
6:53 pm 18:53 Partly Cloudy 75 23.9 38 3.3 26 26 WNW 14 22 29.78 1009 10 16 N/A
7:53 pm 19:53 Sunny 70 21.1 34 1.1 27 27 WNW 15 24 29.79 1009 10 16 N/A
8:53 pm 20:53 Cloudy 63 17.2 30 -1.1 29 29 WNW 18 30 29.82 1010 10 16 N/A
9:53 pm 21:53 Clear 61 16.1 30 -1.1 31 31 W 12 19 29.83 1010 10 16 N/A
10:53 pm 22:53 Clear 55 12.8 30 -1.1 38 38 W 8 13 29.86 1011 10 16 N/A
11:53 pm 23:53 Clear 51 10.6 28 -2.2 41 41 SW 7 11 29.88 1012 10 16 N/A

Powered by AerisWeather